This is the latest recevied weather packets stored in our database for station/object K4IR. If no packets are shown the sender has not sent any weather packets the latest 10 day(s).
| Time | Temp. | Humidity | Pressure | Rain* | Wind** | Luminosity | Snow |
|---|---|---|---|---|---|---|---|
| 1778094286 | 27.22° C | 54% | 1015.5 hPa | 0 mm | - | 607 W/m² | - |
| 1778093685 | 27.78° C | 50% | 1015.8 hPa | 0 mm | - | 701 W/m² | - |
| 1778093085 | 26.67° C | 53% | 1015.7 hPa | 0 mm | - | 584 W/m² | - |
| 1778092484 | 26.67° C | 53% | 1016 hPa | 0 mm | - | 640 W/m² | - |
| 1778091878 | 27.22° C | 51% | 1016 hPa | 0 mm | - | 555 W/m² | - |
| 1778091273 | 27.22° C | 46% | 1016.1 hPa | 0 mm | - | 789 W/m² | - |
| 1778090672 | 27.78° C | 51% | 1016 hPa | 0 mm | - | 899 W/m² | - |
| 1778090072 | 27.22° C | 50% | 1016 hPa | 0 mm | - | 767 W/m² | - |
| 1778089466 | 26.67° C | 53% | 1015.8 hPa | 0 mm | - | 824 W/m² | - |
| 1778088866 | 27.22° C | 55% | 1016.1 hPa | 0 mm | - | 639 W/m² | - |
| 1778088266 | 26.11° C | 58% | 1016.4 hPa | 0 mm | - | 648 W/m² | - |
| 1778087666 | 27.22° C | 57% | 1016.5 hPa | 0 mm | - | 387 W/m² | - |
| 1778087065 | 27.22° C | 56% | 1016.2 hPa | 0 mm | - | 317 W/m² | - |
| 1778086462 | 25.56° C | 62% | 1016.2 hPa | 0 mm | - | 951 W/m² | - |
| 1778085861 | 26.67° C | 61% | 1016.3 hPa | 0 mm | - | 530 W/m² | - |
| 1778085259 | 26.11° C | 62% | 1016.5 hPa | 0 mm | - | 515 W/m² | - |
| 1778084658 | 26.67° C | 64% | 1016.7 hPa | 0 mm | - | 810 W/m² | - |
| 1778084054 | 26.67° C | 61% | 1017 hPa | 0 mm | - | 790 W/m² | - |
| 1778083454 | 25.56° C | 64% | 1016.8 hPa | 0 mm | - | 792 W/m² | - |
| 1778082849 | 26.11° C | 65% | 1016.9 hPa | 0 mm | - | 500 W/m² | - |
| 1778081731 | 25° C | 70% | 1016.8 hPa | 0 mm | - | 562 W/m² | - |
| 1778081131 | 25° C | 70% | 1016.8 hPa | 0 mm | - | 756 W/m² | - |
| 1778080526 | 25.56° C | 70% | 1016.8 hPa | 0 mm | - | 348 W/m² | - |
| 1778079925 | 25° C | 71% | 1016.7 hPa | 0 mm | - | 307 W/m² | - |
| 1778079325 | 25° C | 71% | 1016.6 hPa | 0 mm | - | 491 W/m² | - |
* Rain latest hour (hover to see other rain measurements)
** Current wind speed in m/s (hover to see current wind gust speed)